Miscellaneous Local Product
Issued by NWS Hastings, NE

Home | Current Version | Previous Version | Graphics & Text | Print | Product List | Glossary On
Versions: 1 2 3 4 5 6 7 8 9 10 11 12 13 14 15 16 17 18 19 20 21 22 23 24 25 26 27 28 29 30 31 32 33 34 35 36 37 38 39 40 41 42 43 44 45 46 47 48 49 50
450
AXUS43 KGID 260202
MISGRI

GID CWA HOURLY WEATHER ROUNDUP
NATIONAL WEATHER SERVICE HASTINGS NE
900 PM CDT FRI MAY 25 2018

NOTE: "FAIR" INDICATES FEW OR NO CLOUDS BELOW 12,000 FEET WITH NO
SIGNIFICANT WEATHER AND/OR OBSTRUCTIONS TO VISIBILITY.

...SOUTH CENTRAL NEBRASKA...

CITY           SKY/WX    TMP DP  RH WIND       PRES   REMARKS
GRAND ISLAND   CLEAR     82  59  45 N6        29.78S
KEARNEY        CLEAR     86  52  30 CALM      29.81R
HASTINGS       CLOUDY    84  58  40 SW6       29.80R
ORD            CLEAR     79  62  56 CALM      29.78R
YORK           PTCLDY    84  63  48 W7        29.77S
AURORA         CLEAR     85  60  42 SW10      29.78S
LEXINGTON      CLEAR     83  52  34 NW3       29.82S
HOLDREGE       CLEAR     80  57  44 S6        29.81S
HEBRON         CLEAR     85  61  45 SW9       29.78S

...NEBRASKA PANHANDLE...

CITY           SKY/WX    TMP DP  RH WIND       PRES   REMARKS
CHADRON        CLEAR     74  62  66 SW3       29.87S
ALLIANCE       CLEAR     72  59  63 NE8       29.91S
SCOTTSBLUFF    CLEAR     77  55  46 NE8       29.91S
SIDNEY         CLEAR     72  54  53 E8        29.95S

...WESTERN AND NORTH CENTRAL NEBRASKA...

CITY           SKY/WX    TMP DP  RH WIND       PRES   REMARKS
VALENTINE      CLEAR     81  58  45 N5        29.83S
AINSWORTH      CLEAR     76  64  64 N3        29.84R
ONEILL         CLEAR     82  60  48 N5        29.80R
BROKEN BOW     CLEAR     78  63  59 N5        29.82R
IMPERIAL       CLEAR     79  51  37 E8        29.88R
NORTH PLATTE   CLEAR     78  63  59 CALM      29.84R
MCCOOK         CLEAR     77  59  53 S5        29.84R

...EASTERN NEBRASKA...

CITY           SKY/WX    TMP DP  RH WIND       PRES   REMARKS
NORFOLK        PTCLDY    79  59  50 CALM      29.73S
SO SIOUX CITY  CLEAR     83  63  50 CALM      29.72R
TEKAMAH        CLOUDY    83  63  50 SW5       29.71S
COLUMBUS       CLOUDY    82  62  50 CALM      29.75S
ALBION         CLEAR     76  67  73 N3        29.77S
OMAHA EPPLEY   PTCLDY    81  68  64 NE3       29.71R
OFFUTT AFB     PTCLDY    76  64  65 CALM      29.70S
MILLARD        MOCLDY    82  67  60 CALM      29.71S
LINCOLN        CLEAR     84  56  38 N6        29.73S
NEBRASKA CITY  CLEAR     83  58  43 S6        29.73S
BEATRICE       CLEAR     86  65  49 SW10      29.75S
FALLS CITY     CLEAR     84  60  44 S7        29.74R

...NORTHERN KANSAS...

CITY           SKY/WX    TMP DP  RH WIND       PRES   REMARKS
GOODLAND       CLEAR     75  54  47 S7        29.90S
HILL CITY      CLOUDY    80  63  55 S7        29.83S
NORTON         CLEAR     79  59  50 S5        29.82F
PHILLIPSBURG   CLEAR     81  63  54 S6        29.80F
SMITH CENTER   CLEAR     79  63  57 S8        29.80F
HAYS           CLEAR     77  66  68 S6        29.84R
RUSSELL        CLEAR     78  70  76 S8        29.81F
CONCORDIA      CLEAR     78  65  63 S7        29.79S
SALINA         CLEAR     81  68  64 S5        29.80S
TOPEKA         CLEAR     82  69  64 S5        29.78R



USA.gov is the U.S. government's official web portal to all federal, state and local government web resources and services.